[[{"header":{"parameterUnit":"m.s-1","parameterCategory":1,"la1":30.2991,"la2":30.254,"lo1":-89.0895,"lo2":-89.0444,"dy":0.0017,"dx":0.0017,"nx":28,"ny":28,"refTime":"2024-12-02T09:00:00:Z","depth":0,"parameterNumber":2,"parameterNumberName":"U-component_of_WINDS"},"data":[0,0,0,0,0,0,0,0,0,0,0,0,0,0,0,0,0,0,0,0,0,0,0,0,0,0,0,0,0,0,0,0,0,0,0,0,0,0,0,0,0,0,0,0,0,0,0,0,0,0,0,0,0,0,0,0,0,0,-0.3236,-0.3236,0,-0.3268,-0.3269,-0.3269,-0.3262,-0.3261,-0.3261,-0.326,-0.3293,-0.3295,-0.3296,0,0,0,0,0,0,0,0,0,0,0,0,0,-0.3168,-0.3169,-0.3236,-0.3236,-0.3237,-0.3268,-0.3269,-0.3269,-0.3262,-0.3261,-0.3261,-0.326,-0.3293,-0.3295,-0.3296,0,0,0,0,0,0,0,0,0,0,0,0,0,-0.3198,-0.3169,-0.3236,-0.3237,-0.3238,-0.3268,-0.3269,-0.3269,-0.3262,-0.3261,-0.326,-0.326,-0.3292,-0.3294,-0.3297,-0.3328,0,0,-0.3303,-0.3304,0,0,0,0,0,0,0,0,-0.3197,-0.3201,-0.3237,-0.3237,-0.3238,-0.326,-0.3257,-0.3289,-0.3262,-0.3253,-0.326,-0.3259,-0.3283,-0.3286,-0.3294,-0.333,-0.3331,-0.3303,-0.3305,-0.3306,-0.3306,0,0,0,0,0,0,0,-0.3194,-0.3199,-0.3249,-0.3237,-0.3238,-0.3236,-0.3239,-0.3263,-0.3273,-0.3254,-0.3253,-0.3257,-0.3283,-0.3292,-0.3295,-0.3331,-0.3303,-0.3305,-0.3307,-0.3307,-0.3393,-0.3394,0,0,0,0,0,0,-0.3192,-0.3198,-0.3248,-0.325,-0.3214,-0.3238,-0.3242,-0.3254,-0.3272,-0.3274,-0.3258,-0.3257,-0.3289,-0.3292,-0.3296,-0.3333,-0.3306,-0.3308,-0.3309,-0.3392,-0.3394,-0.3395,0,0,0,0,0,0,-0.319,-0.3196,-0.3246,-0.3224,-0.323,-0.324,-0.3254,-0.3255,-0.3264,-0.3276,-0.3277,-0.3265,-0.3288,-0.3293,-0.332,-0.3334,-0.3309,-0.3311,-0.3391,-0.3393,-0.3394,-0.3409,0,0,0,0,0,0,-0.3189,-0.3196,-0.3208,-0.3224,-0.3231,-0.327,-0.3255,-0.3256,-0.3267,-0.3266,-0.3283,-0.3285,-0.3288,-0.3317,-0.3322,-0.3337,-0.3312,-0.339,-0.3392,-0.3394,-0.3407,-0.3411,-0.3414,0,0,0,0,0,-0.3186,-0.3211,-0.3209,-0.3215,-0.3247,-0.3271,-0.3275,-0.3278,-0.3269,-0.3281,-0.3288,-0.3284,-0.3332,-0.3319,-0.3325,-0.3341,-0.3389,-0.3391,-0.3394,-0.3406,-0.341,-0.3414,0,0,0,0,0,0,-0.3197,-0.3213,-0.3211,-0.3242,-0.3255,-0.327,-0.3286,-0.3283,-0.3299,-0.3297,-0.33,-0.3304,-0.3331,-0.3339,-0.3325,-0.3372,-0.3359,-0.3363,-0.3366,-0.337,-0.3374,-0.3371,-0.3314,0,0,0,0,0,-0.3204,-0.3222,-0.3235,-0.3261,-0.3268,-0.3276,-0.3286,-0.3287,-0.3301,-0.3307,-0.3316,-0.333,-0.3348,-0.3359,-0.3377,-0.3408,-0.3411,-0.3422,-0.3425,-0.3428,-0.3431,-0.3447,-0.3451,-0.3402,-0.3402,-0.3402,0,0,-0.3216,-0.3227,-0.3239,-0.3264,-0.3274,-0.3293,-0.328,-0.3301,-0.3315,-0.331,-0.3336,-0.3343,-0.3358,-0.3387,-0.3401,-0.3395,-0.3445,-0.343,-0.3432,-0.3434,-0.345,-0.3454,-0.3458,-0.3403,-0.3403,-0.3403,0,0,-0.3249,-0.326,-0.3282,-0.3293,-0.3308,-0.3313,-0.3318,-0.3333,-0.3338,-0.3364,-0.336,-0.3377,-0.3408,-0.3418,-0.3428,-0.3464,-0.346,-0.3469,-0.3486,-0.3502,-0.3506,-0.351,-0.3522,-0.3526,-0.3472,-0.3472,-0.3472,0,-0.3263,-0.3292,-0.3294,-0.3315,-0.3326,-0.3322,-0.3344,-0.3354,-0.3375,-0.3382,-0.3375,-0.3413,-0.3423,-0.3454,-0.3463,-0.3471,-0.3477,-0.3468,-0.3505,-0.3509,-0.3512,-0.3524,-0.3528,-0.3473,-0.3473,-0.3473,-0.3473,0,-0.3308,-0.3328,-0.3344,-0.3363,-0.3376,-0.3398,-0.3403,-0.3415,-0.3415,-0.342,-0.3446,-0.3458,-0.3477,-0.3485,-0.3485,-0.3516,-0.3511,-0.3505,-0.3492,-0.3518,-0.3529,-0.3533,-0.3475,-0.3474,-0.3474,-0.3474,0,0,-0.335,-0.3369,-0.3375,-0.3384,-0.34,-0.3415,-0.3436,-0.3455,-0.3465,-0.3479,-0.3496,-0.3522,-0.3516,-0.3527,-0.3528,-0.3542,-0.3569,-0.3534,-0.3534,-0.3539,-0.3602,-0.3607,-0.3612,-0.3566,-0.3567,-0.3568,-0.3601,0,-0.3384,-0.3421,-0.3423,-0.3457,-0.3475,-0.347,-0.3489,-0.35,-0.3506,-0.3521,-0.3527,-0.3545,-0.3536,-0.3542,-0.3556,-0.3563,-0.3581,-0.356,-0.3582,-0.3583,-0.3578,-0.3618,-0.3623,-0.3654,-0.3605,-0.3606,-0.3607,0,-0.3429,-0.3444,-0.3479,-0.3492,-0.3499,-0.3516,-0.3532,-0.3548,-0.3561,-0.3563,-0.3575,-0.3574,-0.3595,-0.3581,-0.361,-0.3595,-0.3604,-0.3609,-0.361,-0.3612,-0.3596,-0.3621,-0.3664,-0.3669,-0.3614,-0.3613,-0.3613,0,-0.3455,-0.3484,-0.3509,-0.3516,-0.3532,-0.3543,-0.3551,-0.3563,-0.3573,-0.3588,-0.3594,-0.3611,-0.362,-0.3633,-0.3636,-0.3626,-0.3665,-0.3651,-0.3667,-0.3667,-0.3676,-0.3675,-0.372,-0.3682,-0.3682,-0.3682,-0.3682,0,-0.3493,-0.3515,-0.352,-0.3536,-0.3559,-0.3562,-0.3585,-0.3591,-0.3602,-0.3618,-0.3615,-0.363,-0.3634,-0.3649,-0.3652,-0.3675,-0.3679,-0.3681,-0.3682,-0.3682,-0.3681,-0.3688,-0.3685,-0.3683,-0.3683,-0.3682,-0.3682,0,-0.3527,-0.3531,-0.3558,-0.357,-0.3574,-0.3591,-0.3602,-0.3616,-0.362,-0.3641,-0.3645,-0.3653,-0.3671,-0.3675,-0.3697,-0.3698,-0.3725,-0.3724,-0.3721,-0.3721,-0.3736,-0.3735,-0.3787,-0.3794,-0.3751,-0.3751,-0.3752,0,-0.355,-0.3567,-0.3581,-0.3591,-0.3599,-0.3616,-0.3626,-0.3629,-0.364,-0.3655,-0.3668,-0.3685,-0.3699,-0.3728,-0.3735,-0.3751,-0.375,-0.3767,-0.3753,-0.3751,-0.375,-0.3749,-0.375,-0.377,-0.3771,-0.3771,-0.3771,0,-0.3592,-0.3593,-0.3609,-0.3625,-0.3637,-0.365,-0.3663,-0.3671,-0.3675,-0.3688,-0.3706,-0.3717,-0.3738,-0.3756,-0.3772,-0.3779,-0.3776,-0.3776,-0.378,-0.378,-0.3778,-0.3779,-0.3728,-0.3775,-0.3774,-0.3774,-0.3774,-0.3774,-0.3621,-0.3635,-0.3647,-0.3664,-0.3673,-0.3685,-0.3698,-0.3704,-0.372,-0.3737,-0.3738,-0.3757,-0.3769,-0.379,-0.3798,-0.3813,-0.3808,-0.3814,-0.3816,-0.3818,-0.3819,-0.3775,-0.3816,-0.3816,-0.3816,-0.3816,-0.3816,0,-0.3662,-0.367,-0.3685,-0.3702,-0.3715,-0.3711,-0.3724,-0.3735,-0.3752,-0.3763,-0.3777,-0.3798,-0.3814,-0.3822,-0.3838,-0.3849,-0.3847,-0.3853,-0.3852,-0.3853,-0.3823,-0.3817,-0.3853,-0.3853,-0.3853,-0.3853,-0.3853,-0.3853,-0.3685,-0.3709,-0.3711,-0.3739,-0.3746,-0.3765,-0.3773,-0.3783,-0.3791,-0.3814,-0.3828,-0.3833,-0.3842,-0.3859,-0.3873,-0.3875,-0.3881,-0.3887,-0.3888,-0.3859,-0.3856,-0.3852,-0.3847,-0.3888,-0.3888,-0.3918,-0.3918,-0.3918]},{"header":{"parameterUnit":"m.s-1","parameterCategory":1,"la1":30.2991,"la2":30.254,"lo1":-89.0895,"lo2":-89.0444,"dy":0.0017,"dx":0.0017,"nx":28,"ny":28,"refTime":"2024-12-02T09:00:00:Z","depth":0,"parameterNumber":3,"parameterNumberName":"V-component_of_WINDS"},"data":[0,0,0,0,0,0,0,0,0,0,0,0,0,0,0,0,0,0,0,0,0,0,0,0,0,0,0,0,0,0,0,0,0,0,0,0,0,0,0,0,0,0,0,0,0,0,0,0,0,0,0,0,0,0,0,0,0,0,-2.2839,-2.2839,0,-2.2877,-2.2878,-2.2878,-2.2864,-2.2864,-2.2863,-2.2862,-2.2899,-2.2901,-2.2903,0,0,0,0,0,0,0,0,0,0,0,0,0,-2.275,-2.2752,-2.2839,-2.2839,-2.284,-2.2877,-2.2878,-2.2878,-2.2865,-2.2863,-2.2862,-2.2861,-2.2899,-2.2901,-2.2903,0,0,0,0,0,0,0,0,0,0,0,0,0,-2.2789,-2.2752,-2.2839,-2.2837,-2.2838,-2.2877,-2.2878,-2.2879,-2.2865,-2.2863,-2.2862,-2.2861,-2.2898,-2.2901,-2.2903,-2.2946,0,0,-2.2912,-2.2913,0,0,0,0,0,0,0,0,-2.2786,-2.2792,-2.2837,-2.2837,-2.2838,-2.2865,-2.286,-2.2901,-2.2865,-2.2854,-2.2862,-2.286,-2.2889,-2.2892,-2.2902,-2.2948,-2.2949,-2.2912,-2.2913,-2.2915,-2.2915,0,0,0,0,0,0,0,-2.2784,-2.279,-2.2854,-2.2838,-2.2838,-2.2834,-2.2838,-2.2868,-2.2878,-2.2855,-2.2854,-2.2859,-2.2889,-2.29,-2.2903,-2.295,-2.2912,-2.2914,-2.2916,-2.2917,-2.3031,-2.3032,0,0,0,0,0,0,-2.2781,-2.2788,-2.2853,-2.2855,-2.2809,-2.2837,-2.2841,-2.2857,-2.2878,-2.288,-2.286,-2.2858,-2.2896,-2.29,-2.2904,-2.2954,-2.2915,-2.2917,-2.2919,-2.303,-2.3031,-2.3033,0,0,0,0,0,0,-2.2779,-2.2787,-2.2851,-2.2821,-2.2829,-2.284,-2.2858,-2.2859,-2.287,-2.2882,-2.2883,-2.287,-2.2895,-2.29,-2.2936,-2.2956,-2.2918,-2.2921,-2.3028,-2.303,-2.3032,-2.3056,0,0,0,0,0,0,-2.2777,-2.2787,-2.2804,-2.2822,-2.2831,-2.2883,-2.2859,-2.2861,-2.2875,-2.2873,-2.2891,-2.2893,-2.2894,-2.2932,-2.2938,-2.2959,-2.2923,-2.3026,-2.3029,-2.3031,-2.3053,-2.3059,-2.3063,0,0,0,0,0,-2.2774,-2.2809,-2.2804,-2.2812,-2.2852,-2.2884,-2.2889,-2.289,-2.2876,-2.2893,-2.2901,-2.2892,-2.2953,-2.2935,-2.2943,-2.2964,-2.3025,-2.3028,-2.3031,-2.3051,-2.3058,-2.3063,0,0,0,0,0,0,-2.2792,-2.2811,-2.2807,-2.2848,-2.2865,-2.2881,-2.2902,-2.2897,-2.2917,-2.2914,-2.2915,-2.2919,-2.2955,-2.2963,-2.2944,-2.3006,-2.2986,-2.2991,-2.2999,-2.3005,-2.301,-2.3007,-2.2925,0,0,0,0,0,-2.2801,-2.2825,-2.2841,-2.2876,-2.2884,-2.2892,-2.2906,-2.2906,-2.2922,-2.2929,-2.2939,-2.2955,-2.2977,-2.2992,-2.3013,-2.3055,-2.3058,-2.3073,-2.3078,-2.3082,-2.3086,-2.3107,-2.3114,-2.3043,-2.3043,-2.3043,0,0,-2.2819,-2.2833,-2.2848,-2.288,-2.2892,-2.2917,-2.2898,-2.2925,-2.2943,-2.2933,-2.2966,-2.2975,-2.2992,-2.303,-2.3048,-2.3038,-2.3106,-2.3086,-2.3089,-2.3091,-2.3111,-2.3118,-2.3124,-2.3045,-2.3045,-2.3045,0,0,-2.2865,-2.2878,-2.2909,-2.2922,-2.2941,-2.2946,-2.2954,-2.2971,-2.2976,-2.301,-2.3003,-2.3024,-2.3063,-2.3075,-2.3087,-2.3137,-2.3129,-2.3144,-2.3169,-2.319,-2.3195,-2.32,-2.3217,-2.3223,-2.3148,-2.3148,-2.3148,0,-2.2885,-2.2923,-2.2925,-2.2953,-2.2966,-2.2959,-2.2989,-2.3001,-2.3026,-2.3036,-2.3025,-2.3073,-2.3084,-2.3125,-2.3137,-2.3147,-2.3155,-2.3141,-2.3195,-2.3199,-2.3204,-2.322,-2.3227,-2.3149,-2.3149,-2.3149,-2.3149,0,-2.2946,-2.2973,-2.2995,-2.302,-2.3036,-2.3065,-2.307,-2.3086,-2.3085,-2.309,-2.3124,-2.3138,-2.3161,-2.3171,-2.317,-2.3211,-2.3204,-2.3194,-2.3174,-2.3212,-2.3227,-2.3234,-2.3152,-2.3151,-2.3151,-2.315,0,0,-2.3004,-2.303,-2.3038,-2.3049,-2.307,-2.3089,-2.3118,-2.3141,-2.3154,-2.3172,-2.3195,-2.3228,-2.3218,-2.3231,-2.3231,-2.3249,-2.3287,-2.3237,-2.3237,-2.3245,-2.3332,-2.3339,-2.3347,-2.3283,-2.3284,-2.3285,-2.3331,0,-2.3051,-2.3101,-2.3104,-2.3149,-2.3172,-2.3165,-2.3189,-2.3204,-2.321,-2.323,-2.3237,-2.326,-2.3246,-2.3254,-2.3272,-2.3279,-2.3304,-2.3275,-2.3303,-2.3304,-2.3298,-2.3355,-2.3362,-2.3405,-2.3337,-2.3338,-2.3338,0,-2.3113,-2.3133,-2.318,-2.3197,-2.3207,-2.3229,-2.325,-2.327,-2.3286,-2.3289,-2.3303,-2.33,-2.3328,-2.3308,-2.3345,-2.3325,-2.3337,-2.3342,-2.3343,-2.3345,-2.3323,-2.3357,-2.3418,-2.3424,-2.3348,-2.3347,-2.3346,0,-2.3149,-2.3188,-2.3221,-2.3231,-2.3251,-2.3266,-2.3276,-2.3291,-2.3304,-2.3323,-2.3331,-2.3353,-2.3364,-2.338,-2.3383,-2.3368,-2.342,-2.34,-2.3422,-2.3422,-2.3432,-2.3432,-2.3496,-2.3441,-2.3441,-2.3441,-2.3441,0,-2.3201,-2.323,-2.3237,-2.3258,-2.329,-2.3292,-2.3323,-2.3331,-2.3344,-2.3365,-2.3361,-2.338,-2.3383,-2.3403,-2.3405,-2.3435,-2.344,-2.3442,-2.3442,-2.3442,-2.3442,-2.3449,-2.3446,-2.3443,-2.3442,-2.3442,-2.3442,0,-2.3246,-2.3253,-2.3288,-2.3305,-2.331,-2.3333,-2.3346,-2.3365,-2.3371,-2.3397,-2.3403,-2.3412,-2.3435,-2.3439,-2.3466,-2.3468,-2.3503,-2.3501,-2.3498,-2.3497,-2.3518,-2.3516,-2.3589,-2.3598,-2.3538,-2.3539,-2.3539,0,-2.3279,-2.3301,-2.332,-2.3334,-2.3344,-2.3367,-2.3381,-2.3383,-2.3398,-2.3418,-2.3434,-2.3457,-2.3475,-2.3512,-2.352,-2.3541,-2.3538,-2.3562,-2.3541,-2.354,-2.3537,-2.3535,-2.3537,-2.3566,-2.3566,-2.3567,-2.3567,0,-2.3334,-2.3336,-2.3357,-2.3379,-2.3396,-2.3413,-2.343,-2.3441,-2.3446,-2.3462,-2.3486,-2.3501,-2.3528,-2.3551,-2.3571,-2.3579,-2.3574,-2.3574,-2.358,-2.358,-2.3577,-2.3578,-2.3508,-2.3572,-2.3572,-2.3571,-2.3571,-2.3571,-2.3374,-2.3393,-2.3409,-2.3432,-2.3445,-2.346,-2.3478,-2.3486,-2.3506,-2.353,-2.353,-2.3556,-2.357,-2.3597,-2.3607,-2.3627,-2.3619,-2.3628,-2.363,-2.3632,-2.3633,-2.3574,-2.363,-2.363,-2.363,-2.363,-2.363,0,-2.3428,-2.3439,-2.346,-2.3483,-2.3501,-2.3495,-2.3512,-2.3527,-2.3551,-2.3565,-2.3583,-2.361,-2.3632,-2.3641,-2.3662,-2.3676,-2.3674,-2.3681,-2.368,-2.3682,-2.364,-2.3632,-2.3683,-2.3683,-2.3683,-2.3683,-2.3683,-2.3683,-2.3459,-2.3491,-2.3495,-2.3532,-2.3542,-2.3567,-2.3578,-2.3591,-2.3603,-2.3633,-2.3651,-2.3658,-2.367,-2.3692,-2.3711,-2.3713,-2.372,-2.3729,-2.373,-2.369,-2.3685,-2.368,-2.3672,-2.3731,-2.3731,-2.377,-2.377,-2.3771]}]]